Location: Oriwa
(40.7500°S, 175.3333°E)
Time: 11:53:22
(UTC+00:00)

ARIANE 5 R/B - Pass Details

Date: 03 February 2023
Orbit: 748 x 794 km, 98.8° (Epoch: 30 March)

Event Time Altitude Azimuth Distance (km) Brightness Sun altitude
Exits shadow 16:45:55 - 320° (NW) 2,450 4.5 -8.1°
Reaches altitude 10° 16:46:30 10° 316° (NW) 2,291 4.3 -8.0°
Maximum altitude 16:49:56 18° 272° (W) 1,801 3.9 -7.4°
Drops below altitude 10° 16:53:27 10° 229° (SW) 2,332 4.8 -6.9°
Sets 16:56:31 0° 210° (SSW) 3,278 5.8 -6.3°
